EN

Hourly Weather Abanosimovka

Today, 14 June, Monday

Time Temperature Precipitation Wind Pressure Humidity
00:00 +17°C° 0 mm 2 mps 745 mmHg 91%
01:00 +17°C° 0 mm 2 mps 746 mmHg 91%
02:00 +18°C° 0 mm 1 mps 746 mmHg 91%
03:00 +16°C° 0 mm 1 mps 746 mmHg 91%
04:00 +18°C° 0 mm 1 mps 746 mmHg 90%
05:00 +19°C° 0 mm 1 mps 747 mmHg 89%
06:00 +19°C° 0 mm 1 mps 747 mmHg 89%
07:00 +21°C° 0 mm 1 mps 747 mmHg 83%
08:00 +22°C° 0 mm 1 mps 747 mmHg 78%
09:00 +24°C° 0 mm 1 mps 747 mmHg 73%
10:00 +25°C° 0.1 mm 1 mps 748 mmHg 69%
11:00 +25°C° 0.1 mm 1 mps 748 mmHg 65%
12:00 +26°C° 0.1 mm 1 mps 748 mmHg 62%
13:00 +27°C° 0.4 mm 2 mps 748 mmHg 62%
14:00 +27°C° 0.4 mm 2 mps 748 mmHg 62%
15:00 +27°C° 0.4 mm 2 mps 748 mmHg 62%
16:00 +26°C° 0.3 mm 2 mps 748 mmHg 65%
17:00 +26°C° 0.3 mm 1 mps 747 mmHg 69%
18:00 +26°C° 0.3 mm 1 mps 747 mmHg 72%
19:00 +24°C° 0.1 mm 1 mps 747 mmHg 77%
20:00 +22°C° 0.1 mm 1 mps 747 mmHg 82%
21:00 +20°C° 0.1 mm 2 mps 747 mmHg 87%
22:00 +20°C° 0.4 mm 1 mps 747 mmHg 88%
23:00 +20°C° 0.4 mm 1 mps 747 mmHg 90%

Tomorrow, 15 June, Tuesday

Time Temperature Precipitation Wind Pressure Humidity
00:00 +19°C° 0.4 mm 1 mps 748 mmHg 91%
01:00 +19°C° 0 mm 1 mps 747 mmHg 92%
02:00 +19°C° 0 mm 1 mps 747 mmHg 92%
03:00 +18°C° 0 mm 1 mps 747 mmHg 93%
04:00 +19°C° 0 mm 1 mps 747 mmHg 92%
05:00 +19°C° 0 mm 1 mps 747 mmHg 91%
06:00 +20°C° 0 mm 1 mps 747 mmHg 90%
07:00 +21°C° 0.1 mm 1 mps 747 mmHg 87%
08:00 +22°C° 0.1 mm 1 mps 747 mmHg 84%
09:00 +23°C° 0.1 mm 1 mps 747 mmHg 80%
10:00 +24°C° 0.5 mm 1 mps 747 mmHg 77%
11:00 +24°C° 0.5 mm 1 mps 747 mmHg 74%
12:00 +25°C° 0.5 mm 1 mps 746 mmHg 71%
13:00 +25°C° 0.9 mm 1 mps 746 mmHg 72%
14:00 +24°C° 0.9 mm 1 mps 746 mmHg 73%
15:00 +24°C° 0.9 mm 1 mps 746 mmHg 74%
16:00 +24°C° 0.4 mm 1 mps 746 mmHg 76%
17:00 +24°C° 0.4 mm 1 mps 745 mmHg 78%
18:00 +23°C° 0.4 mm 1 mps 745 mmHg 80%
19:00 +22°C° 0.6 mm 1 mps 745 mmHg 84%
20:00 +21°C° 0.6 mm 1 mps 745 mmHg 87%
21:00 +20°C° 0.6 mm 1 mps 744 mmHg 90%
22:00 +20°C° 0.5 mm 1 mps 744 mmHg 91%
23:00 +20°C° 0.5 mm 1 mps 744 mmHg 92%

Day after tomorrow, 16 June, Wednesday

Time Temperature Precipitation Wind Pressure Humidity
00:00 +19°C° 0.5 mm 2 mps 744 mmHg 93%
01:00 +19°C° 0.5 mm 2 mps 744 mmHg 93%
02:00 +18°C° 0.5 mm 2 mps 744 mmHg 94%
03:00 +18°C° 0.5 mm 2 mps 744 mmHg 94%
04:00 +18°C° 0 mm 2 mps 744 mmHg 93%
05:00 +19°C° 0 mm 2 mps 744 mmHg 92%
06:00 +20°C° 0 mm 1 mps 744 mmHg 92%
07:00 +20°C° 0 mm 2 mps 744 mmHg 87%
08:00 +23°C° 0 mm 2 mps 744 mmHg 83%
09:00 +24°C° 0 mm 2 mps 744 mmHg 79%
10:00 +25°C° 0.2 mm 3 mps 744 mmHg 75%
11:00 +25°C° 0.2 mm 3 mps 745 mmHg 71%
12:00 +26°C° 0.2 mm 3 mps 745 mmHg 67%
13:00 +26°C° 0.6 mm 3 mps 745 mmHg 70%
14:00 +25°C° 0.6 mm 3 mps 745 mmHg 73%
15:00 +25°C° 0.6 mm 3 mps 745 mmHg 76%
16:00 +24°C° 0.2 mm 3 mps 746 mmHg 78%
17:00 +24°C° 0.2 mm 3 mps 746 mmHg 80%
18:00 +24°C° 0.2 mm 3 mps 746 mmHg 82%
19:00 +22°C° 0 mm 3 mps 746 mmHg 85%
20:00 +21°C° 0 mm 3 mps 747 mmHg 88%
21:00 +20°C° 0 mm 3 mps 747 mmHg 91%
22:00 +19°C° 0 mm 3 mps 747 mmHg 92%
23:00 +19°C° 0 mm 3 mps 748 mmHg 94%

17 June, Thursday

Time Temperature Precipitation Wind Pressure Humidity
00:00 +18°C° 0 mm 4 mps 748 mmHg 95%
01:00 +18°C° 0 mm 4 mps 748 mmHg 95%
02:00 +17°C° 0 mm 3 mps 749 mmHg 96%
03:00 +17°C° 0 mm 3 mps 749 mmHg 96%
04:00 +17°C° 0 mm 4 mps 750 mmHg 94%
05:00 +17°C° 0 mm 4 mps 750 mmHg 92%
06:00 +16°C° 0 mm 5 mps 751 mmHg 91%
07:00 +17°C° 0 mm 5 mps 751 mmHg 84%
08:00 +20°C° 0 mm 6 mps 751 mmHg 77%
09:00 +21°C° 0 mm 6 mps 751 mmHg 70%
10:00 +22°C° 0 mm 6 mps 752 mmHg 64%
11:00 +22°C° 0 mm 6 mps 752 mmHg 59%
12:00 +23°C° 0 mm 5 mps 752 mmHg 54%
13:00 +23°C° 0 mm 6 mps 753 mmHg 54%
14:00 +23°C° 0 mm 6 mps 753 mmHg 54%
15:00 +24°C° 0 mm 6 mps 753 mmHg 54%
16:00 +23°C° 0 mm 5 mps 753 mmHg 59%
17:00 +22°C° 0 mm 5 mps 753 mmHg 63%
18:00 +21°C° 0 mm 5 mps 753 mmHg 68%
19:00 +20°C° 0 mm 4 mps 754 mmHg 73%
20:00 +18°C° 0 mm 3 mps 754 mmHg 78%
21:00 +16°C° 0 mm 3 mps 754 mmHg 82%
22:00 +16°C° 0 mm 3 mps 754 mmHg 83%
23:00 +14°C° 0 mm 3 mps 754 mmHg 84%

18 June, Friday

Time Temperature Precipitation Wind Pressure Humidity
00:00 +14°C° 0 mm 3 mps 754 mmHg 85%
01:00 +13°C° 0 mm 3 mps 755 mmHg 87%
02:00 +13°C° 0 mm 3 mps 755 mmHg 89%
03:00 +12°C° 0 mm 3 mps 755 mmHg 90%
04:00 +13°C° 0 mm 3 mps 755 mmHg 88%
05:00 +14°C° 0 mm 3 mps 756 mmHg 86%
06:00 +15°C° 0 mm 2 mps 756 mmHg 84%
07:00 +17°C° 0 mm 3 mps 756 mmHg 78%
08:00 +18°C° 0 mm 3 mps 756 mmHg 71%
09:00 +20°C° 0 mm 4 mps 756 mmHg 64%
10:00 +21°C° 0 mm 4 mps 756 mmHg 60%
11:00 +22°C° 0 mm 4 mps 757 mmHg 55%
12:00 +23°C° 0 mm 4 mps 757 mmHg 51%
13:00 +23°C° 0 mm 4 mps 756 mmHg 50%
14:00 +25°C° 0 mm 4 mps 756 mmHg 50%
15:00 +25°C° 0 mm 4 mps 756 mmHg 50%
16:00 +23°C° 0 mm 4 mps 756 mmHg 55%
17:00 +23°C° 0 mm 4 mps 756 mmHg 60%
18:00 +24°C° 0 mm 3 mps 756 mmHg 65%
19:00 +21°C° 0 mm 3 mps 757 mmHg 70%
20:00 +19°C° 0 mm 3 mps 757 mmHg 74%
21:00 +17°C° 0 mm 2 mps 757 mmHg 79%
22:00 +17°C° 0 mm 2 mps 757 mmHg 81%
23:00 +16°C° 0 mm 2 mps 757 mmHg 84%

19 June, Saturday

Time Temperature Precipitation Wind Pressure Humidity
00:00 +15°C° 0 mm 2 mps 757 mmHg 86%
01:00 +15°C° 0 mm 2 mps 758 mmHg 87%
02:00 +15°C° 0 mm 2 mps 758 mmHg 88%
03:00 +14°C° 0 mm 2 mps 758 mmHg 89%
04:00 +15°C° 0 mm 2 mps 758 mmHg 87%
05:00 +16°C° 0 mm 2 mps 759 mmHg 85%
06:00 +17°C° 0 mm 2 mps 759 mmHg 83%
07:00 +18°C° 0 mm 2 mps 759 mmHg 77%
08:00 +20°C° 0 mm 2 mps 759 mmHg 71%
09:00 +21°C° 0 mm 2 mps 759 mmHg 65%
10:00 +23°C° 0 mm 2 mps 759 mmHg 61%
11:00 +24°C° 0 mm 2 mps 759 mmHg 57%
12:00 +25°C° 0 mm 2 mps 759 mmHg 53%
13:00 +26°C° 0 mm 2 mps 758 mmHg 52%
14:00 +26°C° 0 mm 2 mps 758 mmHg 51%
15:00 +27°C° 0 mm 2 mps 758 mmHg 50%
16:00 +26°C° 0 mm 2 mps 757 mmHg 54%
17:00 +26°C° 0 mm 1 mps 757 mmHg 58%
18:00 +26°C° 0 mm 1 mps 757 mmHg 62%
19:00 +24°C° 0 mm 1 mps 757 mmHg 67%
20:00 +22°C° 0 mm 1 mps 757 mmHg 72%
21:00 +20°C° 0 mm 1 mps 757 mmHg 78%
22:00 +20°C° 0 mm 1 mps 757 mmHg 79%
23:00 +19°C° 0 mm 1 mps 757 mmHg 81%
Show more